sat.trackr.live / text

‹ back to catalog

STARLINK-34091

NORAD 63808 · 2025-092E

PAYLOAD ACTIVE UNKNOWN

§ Identity

Operator
Country
US
Launch date
2025-05-04
Launch site
AFETR
Launch vehicle
Mass (kg)
RCS (m²)

Purposes: comms

External: N2YO · Heavens-Above · Gunter

§ Orbital elements

Epoch: 2026-05-24T22:22:51.737664Z

Period
94.27 min
Inclination
43.0013°
Eccentricity
0.0001089
Mean motion
15.27578566 rev/d
Perigee alt
482.3 km
Apogee alt
483.8 km
Semi-major
6,861.2 km
B*
1.7724e-4
RAAN
102.0841°
Arg perigee
262.0703°
Mean anomaly
98.0025°
Rev number
6,032

§ Raw data

STARLINK-340911 63808U 25092E   26144.93254326  .00004618  00000+0  17724-3 0  99962 63808  43.0013 102.0841 0001089 262.0703  98.0025 15.27578566 60329

JSON: /api/v1/satellites/63808 · /tle

For live sub-satellite position, see the globe view (requires WebGL).

§ Visibility from observer

Set your observer location to see the next 7 days of passes ≥ 10°. The values pass through the URL so the page stays shareable.

No JS? Fill the form by hand. The geolocation button needs JavaScript.